Location: Coopersdale
(40.3556°N, 78.9372°W)
Time: 03:36:35
(UTC+00:00)

Tiros 1 despin weight - Pass Details

Date: 23 January 2021
Orbit: 593 x 642 km, 48.2° (Epoch: 02 March)

Event Time Altitude Azimuth Distance (km) Brightness Sun altitude
Rises 19:44:49 0° 236° (WSW) 2,890 ? 22.4°
Reaches altitude 10° 19:47:08 10° 236° (SW) 1,978 ? 22.1°
Maximum altitude 19:51:41 84° 149° (SSE) 619 ? 21.6°
Drops below altitude 10° 19:56:11 10° 61° (ENE) 1,954 ? 21.1°
Sets 19:58:28 0° 61° (ENE) 2,853 ? 20.9°
